Flag for Paraguay Weather past 2 weeks in Ciudad del Este, Paraguay

Now
63 °F

Clear.


Feels Like: 63 °F
Forecast: 60 / 75 °F
Wind: 2 mph from East

Location: Foz Do Iguacu Aeroporto

Current Time: Jul 28, 2014 at 9:59:35 PM

Latest Report: Jul 28, 2014 at 9:00 PM


Visibility: 10 mi

Pressure: 30.24 "Hg

Humidity: 88%

Dew point: 59 °F

Location of Ciudad del EsteLocation

Historic Weather in Ciudad del Este — Graph

°F

Ciudad del Este temperature yesterday

Maximum temperature yesterday: 72 °F (at 2:00 PM)
Minimum temperature yesterday: 43 °F (at 2:00 AM)
Average temperature yesterday: 58 °F

Past Weeks' High & Low Weather Summary

 TemperatureHumidityPressure
High82 °F (Jul 15, 2:00 PM)100% (Jul 13, 9:00 PM)30.33 "Hg (Jul 13, 9:00 PM)
Low41 °F (Jul 19, 7:00 AM)36% (Jul 21, 2:00 PM)29.65 "Hg (Jul 23, 4:00 PM)
Average61 °F81%30.10 "Hg
* Reported Jul 13 9:00 PM — Jul 28 9:00 PM, Ciudad del Este, Weather by CustomWeather, © 2014

Note: Actual official high and low records may vary slightly from our data, if they occured in-between our weather recording intervals... More about our weather records

Advertising

Ciudad del Este weather history for previous 24 hours

 ConditionsComfort  
Time TempWeatherWind HumidityBarometerVisibility
9:00 PM
Jul 28
63 °FClear.2 mph88%30.24 "Hg10 mi
8:00 PM63 °FClear.6 mph88%30.24 "Hg10 mi
7:00 PM64 °FClear.2 mph88%30.24 "Hg10 mi
6:00 PM66 °FClear.2 mph88%30.21 "Hg10 mi
5:00 PM70 °FPassing clouds.3 mph78%30.21 "HgN/A
4:00 PM72 °FPartly sunny.8 mph69%30.21 "HgN/A
3:00 PM73 °FPartly sunny.10 mph65%30.18 "HgN/A
2:00 PM75 °FScattered clouds.13 mph61%30.18 "HgN/A
1:00 PM73 °FScattered clouds.10 mph65%30.21 "HgN/A
12:00 PM72 °FBroken clouds.12 mph65%30.27 "HgN/A
11:00 AM70 °FScattered clouds.9 mph69%30.27 "HgN/A
10:00 AM64 °FPartly sunny.8 mph78%30.30 "HgN/A
9:00 AM63 °FBroken clouds.12 mph83%30.30 "HgN/A
8:00 AM61 °FLight rain. Broken clouds.14 mph83%30.27 "HgN/A
7:00 AM59 °FPartly sunny.10 mph88%30.27 "HgN/A
6:00 AM59 °FSunny.10 mph88%30.24 "Hg10 mi
5:00 AM59 °FClear.8 mph88%30.24 "Hg10 mi
4:00 AM61 °FClear.6 mph88%30.21 "Hg10 mi
3:00 AM61 °FPassing clouds.8 mph88%30.21 "HgN/A
2:00 AM61 °FPassing clouds.7 mph88%30.21 "HgN/A
1:00 AM61 °FPassing clouds.7 mph94%30.24 "HgN/A
12:00 AM63 °FPassing clouds.8 mph88%30.24 "HgN/A
11:00 PM
Jul 27
63 °FPassing clouds.6 mph88%30.24 "HgN/A
10:00 PM64 °FPassing clouds.5 mph78%30.24 "HgN/A
9:00 PM64 °FClear.3 mph78%30.24 "Hg10 mi
Weather by CustomWeather, © 2014

See weather overviewHow to use our weather pages